Flag for Canada Weather past 2 weeks in Welland, Ontario, Canada

Now
19 °F

Cold.


Feels Like: 14 °F
Forecast: 12 / 31 °F
Wind: 3 mph from North

Location: Port Colborne Airport

Current Time: Jan 25, 2015 at 7:43:21 AM

Latest Report: Jan 25, 2015 at 7:00 AM


Visibility: N/A

Pressure: 29.84 "Hg

Humidity: 72%

Dew point: 12 °F

Location of WellandLocation

Historic Weather in Welland — Graph

°F

Welland temperature yesterday

Maximum temperature yesterday: 31 °F (at 11:00 PM)
Minimum temperature yesterday: 24 °F (at 8:00 AM)
Average temperature yesterday: 28 °F

Past Weeks' High & Low Weather Summary

 TemperatureHumidityPressure
High41 °F (Jan 18, 4:00 AM)100% (Jan 12, 3:00 PM)30.80 "Hg (Jan 12, 3:00 PM)
Low3 °F (Jan 14, 3:00 AM)32% (Jan 16, 4:00 PM)29.51 "Hg (Jan 24, 3:00 PM)
Average23 °F74%30.14 "Hg
* Reported Jan 10 6:00 AM — Jan 25 6:00 AM, Welland, Weather by CustomWeather, © 2014

Note: Actual official high and low records may vary slightly from our data, if they occured in-between our weather recording intervals... More about our weather records

Advertising

Welland weather history for previous 24 hours

 ConditionsComfort  
Time TempWeatherWind HumidityBarometerVisibility
6:00 AM
Jan 25
22 °FCold.5 mph72%29.80 "HgN/A
5:00 AM26 °FChilly.3 mph84%29.76 "HgN/A
4:00 AM27 °FChilly.5 mph76%29.71 "HgN/A
3:00 AM29 °FChilly.5 mph72%29.67 "HgN/A
2:00 AM31 °FChilly.5 mph72%29.63 "HgN/A
1:00 AM32 °FChilly.3 mph86%29.60 "HgN/A
12:00 AM31 °FChilly.2 mph92%29.58 "HgN/A
11:00 PM
Jan 24
31 °FChilly.3 mph92%29.57 "HgN/A
10:00 PM31 °FChilly.3 mph92%29.56 "HgN/A
9:00 PM31 °FChilly.3 mph92%29.56 "HgN/A
8:00 PM31 °FChilly.3 mph91%29.55 "HgN/A
7:00 PM30 °FChilly.3 mph92%29.55 "HgN/A
6:00 PM30 °FChilly.5 mph92%29.54 "HgN/A
5:00 PM30 °FChilly.9 mph93%29.52 "HgN/A
4:00 PM29 °FChilly.13 mph100%29.52 "HgN/A
3:00 PM29 °FChilly.22 mph92%29.51 "HgN/A
2:00 PM29 °FChilly.22 mph90%29.52 "HgN/A
1:00 PM28 °FChilly.21 mph90%29.54 "HgN/A
12:00 PM29 °FChilly.22 mph83%29.59 "HgN/A
11:00 AM28 °FChilly.20 mph93%29.62 "HgN/A
10:00 AM27 °FChilly.17 mph83%29.63 "HgN/A
9:00 AM26 °FChilly.14 mph84%29.66 "HgN/A
8:00 AM24 °FCold.9 mph86%29.68 "HgN/A
7:00 AM24 °FCold.14 mph91%29.69 "HgN/A
Weather by CustomWeather, © 2014

See weather overviewHow to use our weather pages